Back to catalog

ARIANE 5 R/B

AliveHEO
NORAD 49335·ROCKET BODY·🇫🇷 France

Launched Oct 24, 2021 from Guiana Space Centre

Loading…

Next Passes (next 24 hours)

TLE

FreshSource: Space-Track

Epoch: Sep 14, 2026, 04:34 UTC

1 49335U 21095D   26257.19051862  .00005779  00000-0  11289-2 0  9996
2 49335   5.5226 175.1053 7059741 325.9133   4.4724  2.57023417 43590

Track ARIANE 5 R/B in real time with AllMySat

Download on the App Store